{"data":{"norad_id":57495,"intl_designator":"2023-113A","name":"STARLINK-30154","alt_names":[],"object_type":"PAYLOAD","status":"ACTIVE","operator":null,"country":"US","launch_date":"2023-08-07","launch_site_code":"AFETR","launch_vehicle":null,"mission":null,"orbit_class":"UNKNOWN","rcs_meters":null,"size_class":null,"mass_kg":null,"dimensions":null,"purposes":["comms"],"wikipedia_slug":null,"has_3d_model":false,"image_url":null,"decayed_at":null,"tle_current":{"epoch":"2026-09-20T07:43:35.401728Z","epoch_age_seconds":143326,"freshness":"FRESH","line1":"1 57495U 23113A   26263.32193752 -.00000555  00000+0 -10644-4 0  9996","line2":"2 57495  43.0047 356.7109 0001864 272.1253  87.9385 15.27583012173287","mean_motion":15.27583012,"eccentricity":0.0001864,"inclination_deg":43.0047,"raan_deg":356.7109,"arg_perigee_deg":272.1253,"mean_anomaly_deg":87.9385,"bstar":-1.0644e-5,"rev_number":17328,"period_min":94.266562843918,"perigee_km":481.76115363575,"apogee_km":484.31900045007,"semimajor_km":6861.1770770429,"source":"CELESTRAK","updated_at":"2026-09-21T09:00:33.631999Z"}}}